Tracking 19905 objects as of 17-Oct-2019
HD Live streaming from Space Station
objects crossing your sky now

COSMOS 1275 DEB

Track COSMOS 1275 DEB now!
10-day predictions


NORAD ID: 42158
Int'l Code: 1981-053RW
Perigee: 905.6 km
Apogee: 1,072.2 km
Inclination: 83.0 °
Period: 104.7 minutes
Semi major axis: 7359 km
RCS: Unknown
Launch date: June 4, 1981
Source: Commonwealth of Independent States (former USSR) (CIS)
Launch site: PLESETSK MISSILE AND SPACE COMPLEX (PKMTR)

Note: This is SATELLITE DEBRIS
aabbcc
Your satellite tracking list
Your tracking list is empty




NASA's NSSDC Master Catalog

Two Line Element Set (TLE):
1 42158U 81053RW  19290.04171623  .00000599  00000-0  58398-3 0  9991
2 42158  83.0105 177.0733 0113192  41.9063  24.5016 13.74967909814979
Source of the keplerian elements: AFSPC